Dickinson, ND

7:51 AM MST on February 24, 2017 (GMT -0700)
Dickinson Municipal

Weather History for KDIK - June, 2013

Change the Weather History Date:

Thursday, June 20, 2013

  Actual Average Record
Temperature  
Mean Temperature 70 °F 64 °F  
Max Temperature 79 °F 77 °F 103 °F (1988)
Min Temperature 60 °F 50 °F 30 °F (1969)
Degree Days  
Heating Degree Days 0 3  
Month to date heating degree days 111 110  
Since 1 June heating degree days 111 110  
Since 1 July heating degree days 8541 8550  
Cooling Degree Days 5 2  
Month to date cooling degree days 13 27  
Year to date cooling degree days 22 37  
Since 1 June cooling degree days 13 27  
Growing Degree Days 19 (Base 50)    
Moisture  
Dew Point 61 °F    
Average Humidity 77    
Maximum Humidity 93    
Minimum Humidity 60    
Precipitation  
Precipitation 0.27 in 0.12 in 1.62 in (1991)
Month to date precipitation 1.26 2.14  
Year to date precipitation 8.35 7.25  
Sea Level Pressure  
Sea Level Pressure 29.73 in    
Wind  
Wind Speed 9 mph (NNE)    
Max Wind Speed 25 mph    
Max Gust Speed 33 mph    
Visibility 10 miles    
Events Rain , Thunderstorm    
T = Trace of Precipitation, MM = Missing Value Source: NWS Daily Summary

Daily Weather History Graph

Daily Weather History Graph

Search for Another Location

Airport or City:

Trip Planner

Search our weather history database for the weather conditions in past years. The results will help you decide how hot, cold, wet, or windy it might be!

Date:

Astronomy

Jun. 20, 2013 Rise Set
Actual Time 4:56 AM MDT 8:48 PM MDT
Civil Twilight 4:17 AM MDT 9:28 PM MDT
Nautical Twilight 3:23 AM MDT 10:22 PM MDT
Astronomical Twilight 2:02 AM MDT 11:42 PM MDT
Moon 5:47 PM MDT (6/20) 2:33 AM MDT (6/20)
Length of Visible Light 17h 11m
Length of Day
15h 52m
Waxing Gibbous, 89% of the Moon is Illuminated
Jun 20
Waxing Gibbous
Jun 23
Full
Jun 29
Last Quarter
Jul 8
New
Jul 15
First Quarter

Hourly Weather History & Observations

Time (MDT) Temp. Dew Point Humidity Pressure Visibility Wind Dir Wind Speed Gust Speed Precip Events Conditions
12:56 AM 66.9 °F 61.0 °F 81% 29.56 in 10.0 mi East 18.4 mph - N/A   Clear
1:56 AM 66.9 °F 61.0 °F 81% 29.56 in 10.0 mi East 13.8 mph - N/A   Clear
2:56 AM 68.0 °F 61.0 °F 78% 29.57 in 10.0 mi ESE 18.4 mph - N/A   Clear
3:31 AM 66.2 °F 60.8 °F 83% 29.65 in 10.0 mi East 9.2 mph - N/A Thunderstorm Clear
3:56 AM 66.0 °F 61.0 °F 84% 29.64 in 9.0 mi South 26.5 mph 33.4 mph 0.02 in Rain , Thunderstorm Light Thunderstorms and Rain
4:07 AM 60.8 °F 55.4 °F 82% 29.64 in 4.0 mi South 11.5 mph 18.4 mph 0.14 in Rain , Thunderstorm Heavy Thunderstorms and Rain
4:56 AM 63.0 °F 54.0 °F 72% 29.61 in 10.0 mi East 8.1 mph - 0.25 in Rain , Thunderstorm Light Thunderstorms and Rain
5:16 AM 62.6 °F 55.4 °F 77% 29.66 in 10.0 mi SE 4.6 mph - 0.00 in   Mostly Cloudy
5:56 AM 60.1 °F 57.0 °F 90% 29.62 in 10.0 mi SW 4.6 mph - 0.00 in   Partly Cloudy
6:31 AM 60.8 °F 57.2 °F 88% 29.68 in 10.0 mi Calm Calm - N/A   Partly Cloudy
6:56 AM 62.1 °F 59.0 °F 90% 29.64 in 10.0 mi SSW 9.2 mph - 0.00 in   Partly Cloudy
7:56 AM 68.0 °F 61.0 °F 78% 29.67 in - Variable 6.9 mph - N/A   Unknown
8:47 AM 68.0 °F 60.8 °F 78% 29.76 in 10.0 mi North 5.8 mph - N/A   Mostly Cloudy
8:56 AM 69.1 °F 62.1 °F 78% 29.70 in 10.0 mi North 5.8 mph - N/A   Mostly Cloudy
9:56 AM 69.1 °F 62.1 °F 78% 29.74 in 10.0 mi NNW 3.5 mph - N/A   Overcast
10:56 AM 72.0 °F 64.0 °F 76% 29.75 in 10.0 mi Variable 3.5 mph - N/A   Mostly Cloudy
11:24 AM 73.4 °F 64.4 °F 73% 29.81 in 10.0 mi NW 6.9 mph - N/A   Scattered Clouds
11:32 AM 75.2 °F 64.4 °F 69% 29.81 in 10.0 mi NW 5.8 mph - N/A   Mostly Cloudy
11:56 AM 75.9 °F 64.0 °F 67% 29.76 in 10.0 mi NNW 4.6 mph - N/A   Mostly Cloudy
12:56 PM 75.9 °F 63.0 °F 64% 29.77 in 10.0 mi NNW 4.6 mph - N/A   Overcast
1:56 PM 75.9 °F 66.9 °F 74% 29.78 in 10.0 mi NNE 12.7 mph - N/A   Partly Cloudy
2:56 PM 75.9 °F 66.0 °F 71% 29.79 in 10.0 mi NNE 6.9 mph - N/A   Clear
3:56 PM 77.0 °F 64.9 °F 66% 29.79 in 10.0 mi NNE 6.9 mph - N/A   Clear
4:56 PM 78.1 °F 64.9 °F 64% 29.79 in 10.0 mi NNE 11.5 mph - N/A   Partly Cloudy
5:56 PM 77.0 °F 63.0 °F 62% 29.80 in 10.0 mi NNW 9.2 mph - N/A   Clear
6:56 PM 75.0 °F 62.1 °F 64% 29.81 in 10.0 mi North 12.7 mph - N/A   Clear
7:56 PM 71.1 °F 63.0 °F 75% 29.83 in 10.0 mi NNE 10.4 mph - N/A   Clear
8:56 PM 66.0 °F 61.0 °F 84% 29.86 in 10.0 mi NNE 5.8 mph - N/A   Clear
9:56 PM 66.0 °F 62.1 °F 87% 29.88 in 10.0 mi North 6.9 mph - N/A   Scattered Clouds
10:56 PM 64.9 °F 61.0 °F 87% 29.89 in 10.0 mi NNW 6.9 mph - N/A   Partly Cloudy
11:56 PM 63.0 °F 61.0 °F 93% 29.88 in 6.0 mi NNW 5.8 mph - N/A   Clear